Regional Weather Roundup
Issued by NWS Wakefield, VA

Home | Current Version | Previous Version | Graphics & Text | Print | Product List | Glossary On
Versions: 1 2 3 4 5 6 7 8 9 10 11 12 13 14 15 16 17 18 19 20 21 22 23 24 25 26 27
000
ASUS41 KAKQ 261215
RWRAKQ

REGIONAL WEATHER ROUNDUP
NATIONAL WEATHER SERVICE WAKEFIELD VA
800 AM EDT FRI MAY 26 2017

Note: "fair" indicates few or no clouds below 12,000 feet with no
significant weather and/or obstructions to visibility. * = Denotes
station may not report precipitation (e.g., rain,snow,etc.),
thunder or fog.

VAZ042-051-052>054-056-261300-
NORTHERN VIRGINIA

CITY           SKY/WX    TMP DP  RH WIND       PRES   REMARKS
WASH NATIONAL  MOSUNNY   64  58  80 SW10      29.71R
DULLES         MOSUNNY   61  57  87 S5        29.72R
FORT BELVOIR   MOSUNNY   64  57  79 W5        29.72R
QUANTICO       CLOUDY    62  59  90 W8        29.74R
FREDERICKSBRG* MOSUNNY   64  60  87 SW7       29.73R
STAFFORD*      CLOUDY    60  59  96 W5        29.78R
WARRENTON      CLOUDY    61  55  81 SW5       29.74R
CULPEPER*      CLOUDY    62  58  85 SW7       29.75R
MANASSAS*      CLOUDY    60  58  92 SW3       29.74R
LEESBURG*      SUNNY     64  59  82 W5        29.73R
WINCHESTER     CLOUDY    61  55  82 S7        29.72R
FRONT ROYAL*   CLOUDY    59  55  88 SW9       29.73R
LURAY*         CLOUDY    57  57 100 CALM      29.76R
$$

VAZ048-049-060>072-079>083-261300-
CENTRAL AND SOUTH CENTRAL VIRGINIA

CITY           SKY/WX    TMP DP  RH WIND       PRES   REMARKS
RICHMOND       MOSUNNY   65  56  72 W14G22    29.76R
CHESTERFIELD*  NOT AVBL
PETERSBURG*    SUNNY     65  55  71 W10       29.80R
HANOVER        SUNNY     65  54  67 SW8       29.77R
TAPPAHANNOCK*  SUNNY     65  55  67 SW12G20   29.76R
QUINTON*       FAIR      65  57  76 W7        29.76R
CHARLOTTSVILLE SUNNY     63  57  81 SW6       29.75R
GORDONSVILLE*  MOSUNNY   64  57  80 SW6       29.74S
ORANGE*        MOSUNNY   61  55  82 CALM      29.75R
LOUISA*        SUNNY     66  61  82 SW5       29.75R
BUMPASS*       PTSUNNY   62  58  88 SW9       29.75R
FARMVILLE*     SUNNY     64  53  67 SW7       29.79S
CREWE*         FAIR      64  53  68 W9        29.80R
FORT PICKETT*  FAIR      63  56  79 SW14      29.81R
CHASE CITY*    FAIR      63  55  74 W6        29.84R
CLARKSVILLE*   FAIR      63  55  77 SW8       29.84S
SOUTH HILL*    SUNNY     63  56  80 SW9       29.89R
LAWRENCEVILLE* FAIR      64  55  73 W10       29.82R
EMPORIA*       SUNNY     64  54  68 SW9G18    29.83R
$$

VAZ088>098-261300-
SOUTHEAST VIRGINIA

CITY           SKY/WX    TMP DP  RH WIND       PRES   REMARKS
NORFOLK        MOSUNNY   67  55  65 W14G22    29.77R
VIRGINIA BEACH MOSUNNY   64  55  72 W12       29.76R
NORFOLK NAVAL  MOSUNNY   67  55  65 W16       29.79R
WEST POINT*    SUNNY     64  57  78 W8        29.78R
SALUDA*        FAIR      63  58  84 W7        29.74R
NEWPORT NEWS   MOSUNNY   66  55  67 W15G24    29.77R
LANGLEY AFB    MOSUNNY   66  57  72 W18G26    29.76R
FORT EUSTIS    SUNNY     65  56  71 W10       29.75R
WILLIAMSBURG*  SUNNY     64  57  77 W9G17     29.78R
HR EXEC AP*    FAIR      64  55  72 W9G18     29.78R
FRANKLIN*      SUNNY     65  55  69 W12G17    29.81R
US460-WAKEFLD  SUNNY     65  56  72 W10       29.79R
$$

VAZ020-022-025-037-045-261300-
WEST CENTRAL AND SOUTHWEST VIRGINIA

CITY           SKY/WX    TMP DP  RH WIND       PRES   REMARKS
STAUNTON*      CLOUDY    62  54  76 SW6       29.80R
WAYNESBORO*    PTSUNNY   64  54  70 SW13G23   29.79R
HOT SPRINGS VA CLOUDY    52  48  87 W18G30    29.86R
LYNCHBURG      MOSUNNY   66  54  65 SW6       29.85R
DANVILLE       SUNNY     63  56  78 SW10      29.88R
SOUTH BOSTON*  FAIR      63  54  73 W10G18    29.85R
MARTINSVILLE   SUNNY     62  52  70 CALM      29.92R
ROANOKE        PTSUNNY   65  50  58 W17G24    29.89R
BLACKSBURG     CLOUDY    60  50  71 W12G18    29.94R
DUBLIN*        CLOUDY    61  47  60 W13G18    29.93R
MARION*        CLOUDY    55  53  91 CALM      29.98R
HILLSVILLE*    PTSUNNY   57  48  70 W15G21    29.93R
RICHLANDS*     CLOUDY    55  25  32 W10G16    29.99R
WISE*          MOSUNNY   57  50  77 CALM      30.01R
ABINGDON*      CLOUDY    56  56 100 W6        30.00R
$$

MDZ021>025-VAZ099-100-261300-
SOUTHERN MARYLAND AND THE DELMARVA PENINSULA

CITY           SKY/WX    TMP DP  RH WIND       PRES   REMARKS
PATUXENT RIVER MOSUNNY   64  60  87 W17       29.71R
BAY BRIDGE APT LGT RAIN  63  57  82 W13       29.69R
LEONARDTOWN    MOSUNNY   63  57  82 W9        29.74R
DOVER          MOSUNNY   63  63 100 SW10G21   29.66R
GEORGETOWN     MOSUNNY   64  57  78 W8        29.68R
EASTON         PTSUNNY   63  57  82 SW5       29.74R
CAMBRIDGE      PTSUNNY   63  57  82 W5        29.70R
SALISBURY      CLOUDY    63  60  90 W9        29.70R
OCEAN CITY     MOSUNNY   64  57  78 W12       29.70R
WALLOPS ISLAND PTSUNNY   65  60  84 W8        29.72R
ACCOMACK*      CLOUDY    64  11  12 W12G20    29.74R
$$

NCZ012>017-030>032-261300-
NORTH CENTRAL AND EASTERN NORTH CAROLINA

CITY           SKY/WX    TMP DP  RH WIND       PRES   REMARKS
ROANOKE RAPIDS FAIR      63  55  77 W12       29.85R
RALEIGH        MOSUNNY   64  56  75 W7        29.90R
ELIZABETH CITY SUNNY     67  57  70 W16       29.81R
AHOSKIE*         N/A     65  56  74 CALM      29.84R
EDENTON*       SUNNY     69  57  65 W13G21    29.85R
CURRITUCK*     SUNNY     67  56  67 W15G22    29.81R
KILL DEVIL HLS SUNNY     68  55  64 W12G22    29.81R
MANTEO         SUNNY     67  56  67 W14G22    29.83R
CAPE HATTERAS  SUNNY     72  58  61 W16G29    29.86R
TARBORO*       NOT AVBL
GOLDSBORO      SUNNY     65  59  80 W14       29.89R
WASHINGTON     SUNNY     66  56  69 W12       29.88R
GREENVILLE     SUNNY     66  55  68 W15       29.90R
NEW BERN       SUNNY     66  56  70 W13G18    29.91R
WILMINGTON     SUNNY     66  56  70 W10       29.94R
$$

VAZ048-261300-
ELSEWHERE

CITY           SKY/WX    TMP DP  RH WIND       PRES   REMARKS
HARRISBURG PA  MOSUNNY   63  58  83 NW8       29.64R
BALTIMORE      CLOUDY    60  58  92 W10       29.68R
ANNAPOLIS      CLOUDY    63  59  87 W8        29.69R
ANDREWS AFB    SUNNY     62  57  82 SW10      29.71R
PHILADELPHIA   MOSUNNY   62  58  86 SW12      29.63R
HENDERSON NC   SUNNY     60  52  74 SW8       29.87R
GREENSBORO     MOSUNNY   63  55  75 W10       29.90R
ROCKY MOUNT    SUNNY     65  56  72 W9        29.88R
$$

VAZ100-261300-
MARINE

STATION/POSITION TIME  TEMP    WIND        PRES    WAVE   SWELL
                       AIR SEA DIR/SP/G            HT/PER HT/PER
                 (UTC) (F)     (DEG/KT/KT) (MB)    (FT/S) (FT/S)
CAPE MAY NJ      1148   62 62  260/ 17/ 19 1004.0R
LEWES DE         1136   64 62  270/ 14/ 19 1004.3R
15NM E FENWICK I 1150   60 57  240/ 16/ 17 1005.1R   6/ 8   3/ 8
OCEAN-CITY-INLET 1042   61 62  280/  9/ 13 1004.9
WACHAPREAGUE VA  1148   65 65  240/ 10/ 14 1006.6R
THOMAS POINT MD  1200   62 64  250/ 14/ 15   N/A
GOOSES REEF MD   1200   64 62  300/ 16/ 17 1006.2    2/ 3
COVE POINT MD    1148   62     260/ 11/ 16 1006.4R
SOLOMONS ISLAND  1148   65 66  250/ 11/ 16   N/A
BISHOPS HEAD MD  1148   64 65  260/ 18/ 20 1006.4R
PINEY POINT MD   1148          280/ 15/ 17   N/A
POTOMAC MD       1200   65 66  270/ 17/ 21 1005.1    2/ 2
CAMBRIDGE MD     1142   64 67                N/A
LEWISETTA VA     1142   65 67  270/ 16/ 20 1006.3R
RAPPAHANNOCK LGT 1148          250/ 19/ 22 1007.6R
STINGRAY PT      1150   64     280/ 16/ 25 1007.2R
YORK RVR RNG VA  1148   65     270/ 22/ 26 1006.6R
YORKTOWN VA      1148   64 68  250/ 17/ 25 1007.1R
JAMESTOWN VA     1200   65 70  270/ 12/ 16   N/A     0
DOMINION TERM VA 1148   65     280/ 13/ 18 1008.3R
KIPTOPEKE VA     1148      65  280/ 23/ 27   N/A
CHES BAY BRIDGE  1148   65 66  270/ 23/ 26 1007.5R
CAPE HENRY VA    1148   66     250/ 14/ 19   N/A
WILLOUBY STN VA  1148   65     260/ 23/ 25 1007.1R
S CRANEY ISL VA  1148   66     260/ 16/ 20 1008.0R
CAPE HENRY BUOY  1142      62                N/A     4/ 8
1ST LANDING BUOY 1200   66 66              1007.8    3/ 3
CAPE CHARLES BUO 1151      61                N/A     4/ 4
64NM E OF VA BCH 1150   64 62  260/ 19/ 23 1008.2R   6/ 8   2/ 9
DUCK PIER NC     1148   68 62  260/ 22/ 29 1008.9R
44100 DUCK FRF   1135      63                N/A     4/ 4
44056 DUCK FRF   1130      62                N/A     2/ 3
OREGON INLET NC  1142   68 70  250/ 20/ 25 1009.6R
HATTERAS NC      1148   70 72  260/ 19/ 25 1010.9R
DIAMOND SHLS NC  1150   72 78  270/ 23/ 27 1010.8R   8/ 8   2/13
CAPE LOOKOUT NC  1200   70     280/ 18/ 21 1012.3R
$$




USA.gov is the U.S. government's official web portal to all federal, state and local government web resources and services.